#timestamp,LO_Frequency,Hit,StdDev 
1642035615.5,286047000.5,N
1642035635.4,286047000.3,N
1642035655.2,286047001.0,N
1642035675.0,286047002.8,N
1642035675.9,286047002.8,N
1642035695.8,286047000.5,N
1642035715.6,286046999.7,N
1642035735.5,286047001.9,N
1642035755.3,286047000.2,N
1642035775.1,286047001.0,N
1642035795.9,286047001.2,N
1642035815.7,286047000.4,N
1642035835.6,286047000.2,N
1642035855.4,286047002.5,N
1642035875.2,286047002.3,N
1642035895.1,286047001.6,N
1642035896.0,286047001.6,N
1642035915.8,286047003.9,N
1642035935.6,286047001.9,N
1642035955.5,286047002.0,N
1642035975.3,286047002.2,N
1642035995.2,286047002.4,N
1642036015.9,286046999.9,N
1642036035.7,286047000.9,N
1642036055.6,286047002.7,N
1642036075.4,286047001.6,N
1642036095.3,286047001.9,N
1642036115.1,286046999.7,N
1642036116.0,286046999.7,N
1642036135.8,286047000.0,N
1642036155.7,286047000.3,N
1642036175.5,286047002.4,N
1642036195.3,286047002.7,N
1642036215.2,286047002.4,N
1642036235.0,286047001.9,N
1642036235.9,286047001.9,N
1642036255.8,286047002.5,N
1642036275.6,286046999.9,N
1642036295.4,286047001.2,N
1642036315.3,286046999.9,N
1642036335.1,286047002.3,N
1642036355.9,286047001.7,N
1642036375.7,286047002.7,N
1642036395.5,286047002.3,N
1642036415.4,286047002.6,N
1642036435.2,286047000.1,N
1642036455.1,286047002.8,N
1642036456.0,286047002.8,N
1642036475.8,286047002.1,N
1642036495.6,286047001.8,N
1642036515.5,286047001.1,N
1642036535.3,286047000.5,N
1642036555.1,286047002.8,N
1642036575.9,286046998.3,N
1642036595.7,286047000.2,N
1642036615.6,286047001.1,N
1642036635.4,286047000.4,N
1642036655.2,286047000.0,N
1642036675.1,286046999.3,N
1642036676.0,286046999.3,N
1642036695.8,286046998.9,N
1642036715.7,286047001.2,N
1642036735.5,286047000.3,N
1642036755.3,286047000.2,N
1642036775.2,286047002.0,N
1642036795.0,286047002.6,N
1642036795.9,286047002.6,N
1642036815.7,286047002.0,N
1642036835.6,286047002.0,N
1642036855.4,286047002.1,N
1642036875.3,286047001.4,N
1642036895.1,286047003.9,Y
1642036915.8,286047002.3,P
1642036935.7,286047001.9,P
1642036955.5,286047003.8,P
1642036975.4,286047004.3,Y
1642036995.2,286047001.2,P
1642037015.0,286047000.8,N
1642037015.9,286047000.8,N
1642037035.8,286047001.0,N
1642037055.6,286046998.5,N
1642037075.5,286046999.3,N
1642037095.3,286046997.0,N
1642037115.1,286046998.8,N
1642037135.9,286046998.4,N
1642037155.7,286047000.5,N
1642037175.5,286046999.0,N
1642037195.4,286046998.8,N
1642037215.2,286046997.4,N
1642037235.1,286046996.6,N
1642037236.0,286046996.6,N
1642037255.8,286046999.6,N
1642037275.6,286046996.9,N
1642037295.5,286046997.4,N
1642037315.3,286046997.6,N
1642037335.1,286046995.1,N
1642037355.9,286046996.9,N
1642037375.7,286046997.1,N
1642037395.6,286046997.2,N
1642037415.4,286046997.1,N
1642037435.2,286046996.8,N
1642037455.1,286046996.8,N
1642037456.0,286046996.8,N
1642037475.8,286046997.8,N
1642037495.7,286046995.2,N
1642037515.5,286046995.3,N
1642037535.3,286046996.5,N
1642037555.2,286046996.9,N
1642037575.0,286046999.4,N
1642037575.9,286046999.4,N
1642037595.8,286046998.9,N
1642037615.6,286046998.8,N
1642037635.4,286046999.5,N
1642037655.3,286046999.4,N
1642037675.1,286046998.6,N
1642037695.8,286046996.7,N
1642037715.7,286046999.6,N
1642037735.5,286046997.7,N
1642037755.4,286046996.8,N
1642037775.2,286046996.9,N
1642037795.0,286046996.9,N
1642037795.9,286046996.9,N
1642037815.8,286046997.0,N
1642037835.6,286046997.4,N
1642037855.5,286046996.9,N
1642037875.3,286046996.7,N
1642037895.1,286046996.7,N
1642037915.9,286046998.0,N
1642037935.7,286046995.6,Y
1642037955.6,286046998.9,P
1642037975.4,286047000.8,N
1642037995.2,286047000.0,N
1642038015.1,286047000.0,N
1642038016.0,286047000.0,N
1642038035.8,286047002.0,N
1642038055.6,286047001.9,N
1642038075.5,286047002.6,N
1642038095.3,286047002.0,N
1642038115.2,286047002.4,N
1642038135.9,286047002.1,N
1642038155.7,286047002.7,N
1642038175.6,286046998.1,N
1642038195.4,286047000.3,N
1642038215.3,286047000.0,N
1642038235.1,286046998.8,N
1642038236.0,286046998.8,N
1642038255.8,286046998.5,N
1642038275.7,286047000.6,N
1642038295.5,286046998.4,N
1642038315.3,286047002.0,N
1642038335.2,286047004.4,N
1642038355.0,286047003.9,N
1642038355.9,286047003.9,N
1642038375.8,286047002.7,N
1642038395.6,286046999.8,N
1642038415.4,286047002.4,N
1642038435.3,286047000.4,N
1642038455.1,286047001.0,N
1642038475.9,286047000.2,N
1642038495.7,286047001.1,N
1642038515.5,286046999.2,N
1642038535.4,286046999.4,N
1642038555.2,286046996.5,N
1642038575.0,286046997.7,N
1642038575.9,286046997.7,N
1642038595.8,286046997.0,N
1642038615.6,286046996.8,N
1642038635.5,286046999.0,N
1642038655.3,286046998.5,N
1642038675.1,286047000.8,N
1642038695.9,286047001.1,N
1642038715.7,286046998.6,N
1642038735.6,286047000.8,N
1642038755.4,286047001.1,N
1642038775.2,286046996.5,N
1642038795.1,286046997.2,N
1642038796.0,286046997.2,N
1642038815.8,286047001.0,N
1642038835.7,286047000.7,N
1642038855.5,286047001.2,N
1642038875.3,286046998.5,N
1642038895.2,286046999.3,N
1642038915.0,286046999.3,N
1642038915.9,286046999.3,N
1642038935.7,286046996.8,N
1642038955.6,286046997.8,N
1642038975.4,286046997.0,N
1642038995.3,286046997.7,N
1642039015.1,286046999.5,N
1642039035.8,286046999.1,N
1642039055.7,286046999.6,N
1642039075.5,286046999.4,N
1642039095.4,286046996.9,N
1642039115.2,286046998.9,N
1642039135.0,286046997.5,N
1642039135.9,286046997.5,N
1642039155.8,286046997.0,N
1642039175.6,286047000.7,N
1642039195.4,286046998.3,N
